• In Deutschland
  • Länderverzeichnis
  • Für 7 Tage
  • Wassertemperatur
  • Satellitenkarten
  • Wetterkarte
  • Widgets
  • user-avatar
    Anmelden

    Stündliche Wetter Saurimo

    Heute, 23 September, Samstag

    Zeit Temperatur Niederschläge Wind Luftdruck Luftfeuchtigkeit
    00:00 +24°C° 0 mm 1 m/S 670 mmHg 59%
    01:00 +23°C° 0 mm 1 m/S 670 mmHg 62%
    02:00 +23°C° 0 mm 1 m/S 670 mmHg 63%
    03:00 +23°C° 0 mm 1 m/S 670 mmHg 63%
    04:00 +23°C° 0 mm 1 m/S 670 mmHg 64%
    05:00 +24°C° 0 mm 1 m/S 670 mmHg 60%
    06:00 +23°C° 0 mm 0 m/S 671 mmHg 55%
    07:00 +28°C° 0 mm 1 m/S 672 mmHg 48%
    08:00 +32°C° 0 mm 1 m/S 673 mmHg 39%
    09:00 +36°C° 0 mm 1 m/S 673 mmHg 30%
    10:00 +40°C° 0 mm 1 m/S 674 mmHg 21%
    11:00 +39°C° 0 mm 1 m/S 673 mmHg 22%
    12:00 +36°C° 0 mm 1 m/S 672 mmHg 23%
    13:00 +36°C° 0 mm 2 m/S 672 mmHg 23%
    14:00 +36°C° 0 mm 2 m/S 671 mmHg 23%
    15:00 +36°C° 0 mm 2 m/S 671 mmHg 23%
    16:00 +35°C° 0 mm 2 m/S 671 mmHg 23%
    17:00 +32°C° 0 mm 2 m/S 670 mmHg 28%
    18:00 +30°C° 0 mm 2 m/S 670 mmHg 32%
    19:00 +28°C° 0 mm 2 m/S 670 mmHg 37%
    20:00 +27°C° 0 mm 1 m/S 670 mmHg 39%
    21:00 +26°C° 0 mm 1 m/S 671 mmHg 42%
    22:00 +25°C° 0 mm 1 m/S 671 mmHg 44%
    23:00 +25°C° 0 mm 1 m/S 671 mmHg 46%

    Morgen, 24 September, Sonntag

    Zeit Temperatur Niederschläge Wind Luftdruck Luftfeuchtigkeit
    00:00 +24°C° 0 mm 1 m/S 670 mmHg 48%
    01:00 +23°C° 0 mm 1 m/S 670 mmHg 50%
    02:00 +23°C° 0 mm 1 m/S 670 mmHg 51%
    03:00 +23°C° 0 mm 1 m/S 670 mmHg 53%
    04:00 +22°C° 0 mm 1 m/S 670 mmHg 54%
    05:00 +22°C° 0 mm 0 m/S 671 mmHg 50%
    06:00 +23°C° 0 mm 0 m/S 671 mmHg 45%
    07:00 +25°C° 0 mm 0 m/S 672 mmHg 41%
    08:00 +29°C° 0 mm 0 m/S 673 mmHg 34%
    09:00 +35°C° 0 mm 1 m/S 674 mmHg 27%
    10:00 +40°C° 0 mm 1 m/S 675 mmHg 21%
    11:00 +39°C° 0 mm 1 m/S 673 mmHg 20%
    12:00 +36°C° 0 mm 1 m/S 672 mmHg 20%
    13:00 +35°C° 0 mm 1 m/S 671 mmHg 20%
    14:00 +35°C° 0 mm 1 m/S 671 mmHg 20%
    15:00 +36°C° 0 mm 1 m/S 670 mmHg 19%
    16:00 +36°C° 0 mm 1 m/S 670 mmHg 19%
    17:00 +33°C° 0 mm 1 m/S 670 mmHg 22%
    18:00 +31°C° 0 mm 1 m/S 669 mmHg 26%
    19:00 +28°C° 0 mm 1 m/S 669 mmHg 29%
    20:00 +28°C° 0 mm 1 m/S 669 mmHg 31%
    21:00 +27°C° 0 mm 1 m/S 669 mmHg 33%
    22:00 +26°C° 0 mm 1 m/S 670 mmHg 36%
    23:00 +25°C° 0 mm 1 m/S 669 mmHg 38%

    übermorgen, 25 September, Montag

    Zeit Temperatur Niederschläge Wind Luftdruck Luftfeuchtigkeit
    00:00 +24°C° 0 mm 1 m/S 669 mmHg 40%
    01:00 +24°C° 0 mm 1 m/S 668 mmHg 43%
    02:00 +23°C° 0 mm 1 m/S 668 mmHg 45%
    03:00 +21°C° 0 mm 0 m/S 668 mmHg 48%
    04:00 +20°C° 0 mm 0 m/S 668 mmHg 50%
    05:00 +22°C° 0 mm 0 m/S 669 mmHg 46%
    06:00 +24°C° 0 mm 0 m/S 670 mmHg 42%
    07:00 +28°C° 0 mm 1 m/S 671 mmHg 39%
    08:00 +31°C° 0 mm 1 m/S 672 mmHg 34%
    09:00 +33°C° 0 mm 1 m/S 672 mmHg 29%
    10:00 +37°C° 0 mm 2 m/S 673 mmHg 25%
    11:00 +37°C° 0 mm 2 m/S 672 mmHg 24%
    12:00 +37°C° 0 mm 2 m/S 671 mmHg 24%
    13:00 +35°C° 0 mm 1 m/S 670 mmHg 23%
    14:00 +35°C° 0 mm 1 m/S 669 mmHg 24%
    15:00 +35°C° 0 mm 2 m/S 669 mmHg 26%
    16:00 +34°C° 0 mm 2 m/S 668 mmHg 27%
    17:00 +31°C° 0,1 mm 1 m/S 668 mmHg 32%
    18:00 +29°C° 0,1 mm 1 m/S 668 mmHg 37%
    19:00 +27°C° 0,1 mm 1 m/S 668 mmHg 42%
    20:00 +27°C° 0 mm 1 m/S 669 mmHg 45%
    21:00 +26°C° 0 mm 1 m/S 669 mmHg 48%
    22:00 +25°C° 0 mm 1 m/S 669 mmHg 51%
    23:00 +25°C° 0 mm 1 m/S 669 mmHg 54%

    26 September, Dienstag

    Zeit Temperatur Niederschläge Wind Luftdruck Luftfeuchtigkeit
    00:00 +24°C° 0 mm 1 m/S 668 mmHg 56%
    01:00 +24°C° 0 mm 1 m/S 668 mmHg 59%
    02:00 +23°C° 0 mm 2 m/S 667 mmHg 62%
    03:00 +23°C° 0 mm 2 m/S 667 mmHg 65%
    04:00 +21°C° 0 mm 2 m/S 667 mmHg 68%
    05:00 +23°C° 0 mm 2 m/S 668 mmHg 64%
    06:00 +25°C° 0 mm 2 m/S 669 mmHg 60%
    07:00 +26°C° 0 mm 2 m/S 670 mmHg 56%
    08:00 +29°C° 0 mm 2 m/S 671 mmHg 47%
    09:00 +32°C° 0 mm 2 m/S 671 mmHg 39%
    10:00 +36°C° 0 mm 2 m/S 672 mmHg 30%
    11:00 +37°C° 0 mm 2 m/S 671 mmHg 26%
    12:00 +38°C° 0 mm 2 m/S 670 mmHg 23%
    13:00 +39°C° 0 mm 2 m/S 669 mmHg 19%
    14:00 +38°C° 0 mm 2 m/S 669 mmHg 21%
    15:00 +37°C° 0 mm 2 m/S 668 mmHg 22%
    16:00 +35°C° 0 mm 2 m/S 668 mmHg 24%
    17:00 +32°C° 0 mm 2 m/S 668 mmHg 28%
    18:00 +31°C° 0 mm 2 m/S 668 mmHg 32%
    19:00 +29°C° 0 mm 2 m/S 668 mmHg 35%
    20:00 +28°C° 0,1 mm 2 m/S 669 mmHg 41%
    21:00 +27°C° 0,1 mm 1 m/S 669 mmHg 46%
    22:00 +26°C° 0,1 mm 1 m/S 669 mmHg 51%
    23:00 +25°C° 0,1 mm 1 m/S 669 mmHg 55%

    27 September, Mittwoch

    Zeit Temperatur Niederschläge Wind Luftdruck Luftfeuchtigkeit
    00:00 +24°C° 0,1 mm 1 m/S 669 mmHg 58%
    01:00 +24°C° 0,1 mm 1 m/S 668 mmHg 61%
    02:00 +23°C° 0 mm 1 m/S 668 mmHg 65%
    03:00 +23°C° 0 mm 1 m/S 668 mmHg 68%
    04:00 +23°C° 0 mm 1 m/S 668 mmHg 71%
    05:00 +24°C° 0 mm 2 m/S 669 mmHg 68%
    06:00 +25°C° 0 mm 2 m/S 670 mmHg 65%
    07:00 +26°C° 0 mm 2 m/S 671 mmHg 62%
    08:00 +29°C° 0 mm 3 m/S 671 mmHg 53%
    09:00 +31°C° 0 mm 3 m/S 671 mmHg 44%
    10:00 +35°C° 0 mm 3 m/S 672 mmHg 34%
    11:00 +35°C° 0 mm 3 m/S 671 mmHg 32%
    12:00 +36°C° 0 mm 3 m/S 670 mmHg 30%
    13:00 +36°C° 0 mm 2 m/S 669 mmHg 28%
    14:00 +36°C° 0 mm 2 m/S 669 mmHg 29%
    15:00 +35°C° 0 mm 2 m/S 669 mmHg 29%
    16:00 +35°C° 0 mm 2 m/S 669 mmHg 30%
    17:00 +32°C° 0,1 mm 2 m/S 669 mmHg 36%
    18:00 +30°C° 0,1 mm 2 m/S 669 mmHg 41%
    19:00 +28°C° 0,1 mm 2 m/S 669 mmHg 47%
    20:00 +27°C° 0 mm 2 m/S 669 mmHg 52%
    21:00 +26°C° 0 mm 2 m/S 669 mmHg 58%
    22:00 +24°C° 0 mm 2 m/S 669 mmHg 64%
    23:00 +24°C° 0 mm 1 m/S 669 mmHg 68%

    28 September, Donnerstag

    Zeit Temperatur Niederschläge Wind Luftdruck Luftfeuchtigkeit
    00:00 +23°C° 0 mm 1 m/S 669 mmHg 72%
    01:00 +23°C° 0 mm 1 m/S 669 mmHg 75%
    02:00 +22°C° 0,4 mm 1 m/S 669 mmHg 79%
    03:00 +22°C° 0,4 mm 1 m/S 669 mmHg 82%
    04:00 +21°C° 0,4 mm 1 m/S 669 mmHg 86%
    05:00 +22°C° 0,5 mm 1 m/S 670 mmHg 82%
    06:00 +23°C° 0,5 mm 1 m/S 671 mmHg 77%
    07:00 +24°C° 0,5 mm 1 m/S 672 mmHg 73%
    08:00 +28°C° 0,3 mm 1 m/S 673 mmHg 61%
    09:00 +31°C° 0,3 mm 1 m/S 673 mmHg 49%
    10:00 +35°C° 0,3 mm 1 m/S 674 mmHg 37%
    11:00 +35°C° 0 mm 1 m/S 673 mmHg 36%
    12:00 +36°C° 0 mm 2 m/S 672 mmHg 34%
    13:00 +36°C° 0 mm 2 m/S 671 mmHg 32%
    14:00 +35°C° 0 mm 2 m/S 670 mmHg 34%
    15:00 +34°C° 0 mm 2 m/S 670 mmHg 36%
    16:00 +32°C° 0 mm 2 m/S 669 mmHg 38%
    17:00 +30°C° 0,2 mm 2 m/S 669 mmHg 46%
    18:00 +28°C° 0,2 mm 3 m/S 670 mmHg 54%
    19:00 +25°C° 0,2 mm 3 m/S 670 mmHg 63%
    20:00 +24°C° 1,4 mm 2 m/S 670 mmHg 69%
    21:00 +23°C° 1,4 mm 1 m/S 670 mmHg 75%
    22:00 +20°C° 1,4 mm 0 m/S 670 mmHg 81%
    23:00 +22°C° 1,3 mm 1 m/S 670 mmHg 83%
    Mehr zeigen